Regional Weather Roundup
Issued by NWS

Home | Current Version | Previous Version | Text Only | Print | Product List | Glossary Off
Versions: 1 2 3 4 5 6 7 8 9 10 11 12 13 14 15 16 17 18 19 20 21 22 23 24 25 26 27 28 29 30 31 32 33 34 35 36 37 38 39 40 41 42 43 44 45 46 47 48 49 50

000
ASUS43 KLOT 102010
RWRIL

ILLINOIS REGIONAL WEATHER ROUNDUP
NATIONAL WEATHER SERVICE CHICAGO/ROMEOVILLE IL
300 PM CDT THU JUL 10 2014

NOTE: "FAIR" INDICATES FEW OR NO CLOUDS BELOW 12,000 FEET WITH NO
SIGNIFICANT WEATHER AND/OR OBSTRUCTIONS TO VISIBILITY.

* THESE STATIONS ARE NOT UNDER NWS QUALITY CONTROL. THEY ALSO MAY NOT
  REPORT WEATHER SUCH AS PRECIPITATION OR FOG.

ILZ001-002-007-009-015-016-024-102100-
NORTHWEST ILLINOIS

CITY           SKY/WX    TMP DP  RH WIND       PRES   REMARKS
MOLINE         SUNNY     81  58  45 SE8G16    30.12S HX  81
STERLING*      MOSUNNY   79  61  53 S3        30.13F HX  80
SAVANNA*       MOSUNNY   82  57  43 SW6       30.13S HX  81
$$

ILZ003-004-008-010-011-017-018-102100-
NORTH CENTRAL ILLINOIS

CITY           SKY/WX    TMP DP  RH WIND       PRES   REMARKS
ROCKFORD       MOSUNNY   78  57  48 S9        30.15F
FREEPORT*      SUNNY     76  59  55 SE3       30.17S
ROCHELLE*      PTSUNNY   79  58  47 E7        30.14F HX  80
DE KALB*       SUNNY     77  56  48 E8        30.16F
PERU*          PTSUNNY   78  56  46 CALM      30.14F
$$

ILZ005-006-012>014-019>023-102100-
NORTHEAST ILLINOIS

CITY           SKY/WX    TMP DP  RH WIND       PRES   REMARKS
CHICAGO-OHARE  MOSUNNY   77  54  44 E8        30.15F
CHICAGO-MIDWAY MOSUNNY   77  55  46 NE14      30.16F
AURORA         MOSUNNY   78  53  41 VRB5      30.15F
LANSING*       SUNNY     76  51  41 NE8       30.16F
JOLIET*        MOSUNNY   78  50  37 N3        30.15F
WAUKEGAN       SUNNY     71  58  63 E10       30.17F
DUPAGE AIRPORT MOSUNNY   79  53  40 NE7       30.15F
KANKAKEE*      MOSUNNY   77  56  48 N3        30.15F
WHEELING       SUNNY     76  56  49 NE12      30.17F
MORRIS*        SUNNY     79  55  43 CALM      30.14F
ROMEOVILLE*    MOSUNNY   77  52  41 CALM      30.15S
NORTHERLY ISL    N/A     70  61  73 E9          N/A
$$

LMZ740>746-102100-
SOUTHERN LAKE MICHIGAN

STATION/POSITION SKY/WX   TEMP    WIND        PRES    VSBY  WAVE
                          AIR SEA DIR/SP/G                  HT/PER
                          (F)     (DEG/KT/KT) (MB)    (MI)  (FT/S)
SOUTHERN BUOY              63 64  160/  2/  4 1022.6F         0
WAUKEGAN HARBOR            67     130/  8/ 10 1023.0S
HARRISON CRIB              66      90/ 14/ 15   N/A
BURNHAM HARBOR             69      90/ 10       N/A
CALUMET HARBOR             68      60/ 10/ 12 1022.4F
MICHIGAN CITY              68      10/  8/  9   N/A
$$

ILZ025>027-034>036-040-047-049-050-058-095>099-102100-
WEST-CENTRAL ILLINOIS

CITY           SKY/WX    TMP DP  RH WIND       PRES   REMARKS
QUINCY         SUNNY     81  52  36 S8        30.12F HX  80
GALESBURG*     SUNNY     82  59  46 S6        30.14S HX  82
MACOMB*        MOSUNNY   79  59  49 SE8       30.15F HX  80
JACKSONVILLE*  SUNNY     82  59  45 E9        30.14F HX  82
PITTSFIELD*    MOSUNNY   81  57  44 SE7       30.13F HX  81
$$

ILZ028>032-037-038-041>044-048-051>054-059>061-102100-
CENTRAL ILLINOIS

CITY           SKY/WX    TMP DP  RH WIND       PRES   REMARKS
PONTIAC        MOSUNNY   81  55  41 E5        30.14F HX  80
BLOOMINGTON    MOSUNNY   78  53  41 E5        30.16F
DECATUR        MOSUNNY   80  51  36 E10       30.14F HX  80
PEORIA         MOSUNNY   80  58  46 S7        30.13F HX  80
LACON*         MOSUNNY   80  55  41 CALM      30.13S HX  80
LINCOLN*       MOSUNNY   82  56  41 E7        30.11F HX  81
SPRINGFIELD    MOSUNNY   81  57  43 E8        30.14F HX  81
TAYLORVILLE    MOSUNNY   79  55  44 E6        30.13F
$$

ILZ033-039-045-046-055>057-062-063-102100-
EAST-CENTRAL ILLINOIS

CITY           SKY/WX    TMP DP  RH WIND       PRES   REMARKS
CHAMPAIGN      MOSUNNY   79  54  41 E9        30.15F
RANTOUL*       SUNNY     80  47  30 CALM      30.16S
MATTOON        SUNNY     80  52  37 NE10      30.13F HX  80
PARIS*         SUNNY     79  56  45 E6        30.15S
$$

ILZ079-100>102-102100-
SOUTHWEST ILLINOIS

CITY           SKY/WX    TMP DP  RH WIND       PRES   REMARKS
ALTON          MOSUNNY   81  55  41 VRB3      30.12F HX  80
BELLEVILLE     MOSUNNY   82  60  46 E7        30.10F HX  83
CAHOKIA*       MOSUNNY   84  58  40 VRB6      30.10F HX  83
SPARTA*        PTSUNNY   79  55  44 CALM      30.11F
$$

ILZ064>066-069>071-074>076-080>082-084>086-088>090-092>094-102100-
SOUTH-CENTRAL ILLINOIS

CITY           SKY/WX    TMP DP  RH WIND       PRES   REMARKS
CARBONDALE     PTSUNNY   83  59  44 N5        30.10F HX  83
CAIRO*         PTSUNNY   87  66  48 N7        30.08F HX  89
MARION         PTSUNNY   82  59  44 NE6       30.11F HX  82
MT. VERNON     SUNNY     82  57  42 N5        30.11F HX  82
CENTRALIA*     SUNNY     87  51  28 N3        30.11F HX  85
SALEM*         SUNNY     84  51  31 NE7       30.12F HX  82
METROPOLIS*    PTSUNNY   83  61  46 N5        30.08F HX  83
$$

ILZ067-068-072-073-078-083-087-091-102100-
SOUTHEAST ILLINOIS

CITY           SKY/WX    TMP DP  RH WIND       PRES   REMARKS
FLORA*         SUNNY     81  52  36 NE5       30.11F HX  80
HARRISBURG*    MOSUNNY   82  58  43 CALM      30.11F HX  82
ROBINSON*      MOSUNNY   81  57  42 E6        30.13F HX  81
CARMI*         MOSUNNY   85  61  44 NE5       30.09F HX  85
$$

ABBREVIATIONS USED IN REMARKS
   TC - TEMPERATURE IN CELSIUS
  WCI - WIND CHILL INDEX
   HX - HEAT INDEX
  VSB - VISIBILITY
$$




USA.gov is the U.S. government's official web portal to all federal, state and local government web resources and services.